Theta_e
287 283 279 280 281 282 281 278 277 281 285 285 282 283 286 289 291 291 291 292 293 293 296 298 301 317 322 321 322 328 328 327 326 324 324 324 323 322 323 323 323 321 321 321
282 279 284 287 286 283 281 280 278 282 285 286 283 283 286 288 290 291 292 293 292 292 294 296 301 317 320 322 320 324 327 327 326 325 325 322 323 322 324 324 324 322 322 321
279 283 288 285 283 282 281 279 278 280 286 284 283 280 282 289 290 293 293 294 294 294 294 296 299 315 320 320 321 321 325 327 327 327 324 321 322 322 322 323 324 323 322 323
282 286 284 283 283 283 280 283 284 283 282 274 283 275 282 286 288 291 292 293 293 295 297 302 300 312 318 321 323 324 322 325 327 327 324 323 322 321 322 324 324 324 324 323
281 282 283 282 283 285 282 286 285 285 282 277 278 277 279 287 284 287 290 293 294 296 299 302 305 310 319 321 321 323 321 322 324 326 326 324 323 324 323 323 322 323 323 324
282 286 284 284 286 286 287 284 283 283 281 270 278 280 274 282 283 288 291 292 293 295 298 300 303 308 315 317 317 318 318 319 321 321 322 322 322 322 320 321 321 322 324 325
278 281 284 287 283 285 284 279 270 268 268 271 280 276 280 286 287 288 289 290 291 295 296 296 298 302 307 312 317 320 318 318 322 322 321 320 319 318 317 317 316 315 315 315
270 270 281 286 284 283 283 281 270 263 267 272 279 273 280 288 288 290 290 290 291 292 294 295 295 298 304 308 312 317 319 318 317 318 317 319 319 318 314 314 316 314 312 313
271 273 282 285 285 285 281 278 283 279 273 274 275 278 284 287 286 288 287 289 288 290 292 294 295 296 300 306 310 317 316 314 314 316 315 315 315 314 313 314 314 314 314 314
280 272 280 284 284 284 283 286 277 276 269 264 273 275 278 281 282 284 285 286 287 290 291 292 293 294 299 305 308 310 313 311 312 312 312 311 310 311 311 311 310 311 312 310
281 280 277 281 279 280 281 281 283 281 279 273 271 274 282 281 282 282 284 286 286 288 290 292 292 294 299 302 304 306 307 308 307 305 305 304 304 304 303 302 301 303 303 303
282 281 273 276 280 282 281 280 282 275 274 278 278 275 284 283 283 284 284 286 287 288 290 292 291 293 296 298 299 301 302 302 302 302 301 300 300 299 298 298 298 298 297 297
283 274 267 272 276 279 278 281 282 280 281 277 275 274 285 285 284 284 283 285 286 287 290 291 291 291 292 295 296 297 298 298 300 299 298 297 296 296 296 295 295 295 294 293
285 277 274 269 274 277 276 277 280 279 276 277 277 277 279 281 281 283 283 285 285 287 288 290 290 290 292 292 293 295 294 295 295 295 295 293 293 292 292 292 292 292 292 291
279 265 275 277 277 277 277 278 278 278 279 275 277 275 279 280 280 281 282 286 286 287 287 288 289 289 290 289 288 291 290 291 292 291 291 290 291 291 290 290 290 290 290 289
278 266 269 264 276 277 276 278 278 278 279 276 276 276 281 282 281 280 281 285 286 286 286 287 287 287 287 287 287 288 288 289 290 288 288 288 289 289 289 289 289 289 289 288
271 265 261 261 271 272 265 274 278 278 277 279 275 278 281 280 280 280 280 283 284 285 286 286 287 287 287 286 287 285 286 287 287 287 287 288 288 287 287 287 287 287 287 287
270 263 260 261 261 260 274 276 278 278 277 280 280 280 281 281 280 281 282 282 283 284 284 285 285 286 287 287 286 286 286 285 285 284 285 285 286 286 286 286 286 286 286 285
280 273 259 261 261 267 274 277 277 277 276 281 280 281 281 281 282 280 283 284 284 283 285 284 285 286 286 286 286 285 284 284 284 283 283 284 285 285 285 284 284 284 284 283
281 277 266 262 258 258 272 279 280 280 271 281 283 281 280 281 278 277 284 284 285 286 285 285 285 284 283 283 285 283 281 281 281 281 282 282 283 283 282 282 282 282 283 283
273 271 266 267 264 265 275 279 280 267 272 281 283 281 280 279 281 284 289 288 288 287 287 287 285 282 281 281 283 280 279 278 280 281 282 282 282 282 282 282 282 282 282 282
270 267 263 262 257 262 278 279 275 278 282 283 282 285 283 285 287 289 289 287 285 284 283 284 281 279 279 279 281 279 276 276 278 279 279 279 279 281 281 279 280 279 280 278
270 272 268 270 270 278 279 280 282 283 283 283 283 284 287 286 285 286 285 284 283 281 280 280 280 278 276 275 274 275 273 273 274 275 275 275 277 278 277 278 278 276 276 275
275 277 274 274 278 278 281 282 283 282 283 284 284 284 287 284 284 284 285 284 283 281 280 278 276 275 273 272 271 270 270 269 270 272 272 273 273 273 274 276 276 274 273 273
276 278 276 274 279 279 281 282 283 283 282 282 284 284 285 284 284 284 283 282 282 281 277 274 273 273 270 269 267 265 265 265 267 269 270 270 271 269 270 272 272 275 275 275
276 276 276 275 280 281 280 282 284 283 283 283 282 282 283 284 284 283 282 281 278 275 272 271 269 268 266 265 264 263 262 263 264 267 268 268 268 268 269 269 271 278 282 284
Wind_Speed
6 10 5 6 3 1 2 3 6 6 4 13 6 15 20 15 14 20 14 16 19 19 20 16 10 8 9 11 13 14 14 13 10 6 7 6 8 6 6 7 9 7 7 7
8 4 4 5 5 2 1 3 5 8 3 8 8 16 11 4 13 16 17 18 20 20 16 16 9 7 11 14 14 13 13 13 12 9 8 4 6 5 7 8 9 10 9 8
6 3 6 4 4 6 2 1 3 4 17 1 8 6 7 14 16 20 19 15 16 18 16 12 9 9 12 12 15 16 15 13 13 13 7 3 3 2 3 4 6 7 10 10
3 4 4 2 2 4 5 1 3 11 9 4 7 7 7 13 20 19 21 20 17 18 15 8 8 8 10 14 14 14 13 13 13 13 11 13 10 8 7 8 7 9 11 10
2 5 5 4 3 1 7 5 8 8 3 3 5 3 8 16 20 22 24 21 20 17 16 14 13 8 11 8 7 10 9 9 8 10 10 9 8 4 2 1 3 3 4 7
1 2 2 3 5 4 7 4 3 2 1 2 3 2 8 15 15 18 19 17 17 17 19 16 13 13 6 3 4 4 8 6 5 4 1 3 3 4 4 3 2 1 1 3
7 3 2 0 4 2 6 4 4 7 6 4 5 3 8 12 15 12 17 17 17 13 13 14 17 15 12 11 5 4 6 7 6 6 5 6 8 9 8 6 5 7 6 5
3 6 4 4 3 3 5 3 3 2 3 6 6 4 5 9 11 9 13 15 14 9 9 16 15 13 10 10 8 5 7 13 11 12 11 11 9 8 7 6 4 6 6 3
3 5 3 0 1 1 4 4 2 3 2 3 4 5 7 21 19 19 17 17 20 21 22 15 14 14 12 9 10 5 12 13 12 11 12 13 9 10 6 3 5 5 7 3
3 3 2 4 1 0 2 3 3 3 4 5 5 2 9 20 22 20 20 18 17 15 16 16 14 14 12 10 14 16 12 14 12 15 11 11 12 9 7 7 8 8 7 11
3 3 5 3 4 0 4 3 3 1 0 2 4 1 3 9 14 17 16 14 14 12 11 10 10 10 11 14 16 16 13 16 13 12 12 14 10 10 9 8 10 8 10 10
2 2 2 3 2 1 1 2 2 1 4 2 3 5 4 9 13 13 15 12 10 11 12 12 12 13 14 16 14 12 12 13 12 12 13 11 11 9 8 9 10 10 10 10
3 3 2 6 5 3 3 1 1 3 2 1 3 6 8 16 18 16 14 14 12 12 14 13 14 14 15 14 13 13 13 11 6 13 9 11 11 10 9 10 9 10 9 10
3 1 4 6 4 2 4 4 2 2 2 3 4 7 9 16 14 17 17 13 10 11 13 13 13 12 13 13 11 11 12 10 10 11 10 11 10 9 8 9 9 9 8 9
4 4 2 3 4 3 4 5 4 4 3 4 3 5 6 10 11 10 11 10 10 11 12 13 13 12 12 12 11 11 11 12 10 12 12 11 9 8 8 9 8 8 9 8
2 2 2 4 3 3 4 5 5 3 1 4 4 2 3 5 7 11 13 12 10 11 10 10 11 11 11 10 10 10 11 11 10 11 11 8 9 9 8 8 8 7 7 7
4 5 4 6 5 5 6 6 3 1 2 0 2 2 5 4 10 11 11 11 10 11 12 11 10 9 9 9 9 11 9 9 12 11 10 9 9 8 7 6 6 7 7 5
5 5 3 3 5 2 5 3 1 4 4 6 6 6 6 6 2 7 8 8 9 10 11 11 10 9 9 8 10 9 10 10 10 9 8 7 5 6 6 7 7 6 4 6
3 5 3 4 3 6 4 4 6 5 3 6 4 6 6 6 4 5 7 7 7 8 8 8 8 9 10 11 9 9 11 10 11 10 9 8 7 7 7 7 6 5 5 5
5 7 5 2 4 6 6 3 3 4 4 7 4 4 4 5 2 2 4 4 5 5 5 7 8 8 11 11 8 10 10 10 11 10 7 6 7 7 7 6 6 5 5 5
4 1 5 3 3 9 8 4 3 7 6 5 4 1 3 2 0 4 2 1 3 4 7 6 8 9 8 8 7 10 9 12 10 9 8 8 8 7 6 5 3 3 3 3
8 7 5 4 2 9 7 6 7 5 2 5 5 5 5 5 5 3 2 1 1 4 5 5 5 6 7 8 7 8 10 9 9 8 6 7 6 5 4 5 4 4 3 3
3 8 8 10 9 5 7 3 5 6 6 6 6 6 7 7 7 7 4 3 3 3 3 3 3 4 6 8 9 6 8 9 8 5 6 6 6 5 5 4 4 3 3 3
4 5 3 4 5 9 7 4 4 7 6 6 6 7 11 9 7 7 6 4 3 2 2 2 2 3 4 5 6 5 6 7 5 5 6 6 6 7 6 4 2 1 1 2
5 9 7 4 6 3 6 7 6 6 5 5 6 9 12 8 6 7 6 6 4 4 3 3 2 2 3 3 4 5 6 5 4 4 5 5 4 4 4 3 2 2 2 2
6 8 6 8 8 6 4 8 9 8 8 9 8 6 7 9 9 6 7 5 4 4 3 3 3 3 2 3 4 5 5 5 4 3 3 3 3 4 5 5 6 6 6 6
Wind_Direction
18 57 30 329 339 267 232 247 275 267 304 337 337 304 307 316 338 333 331 329 312 286 279 269 249 224 193 181 189 193 188 185 181 178 186 195 197 192 202 196 202 201 208 204
30 55 315 320 5 13 349 310 307 298 44 319 321 304 282 292 348 337 323 323 320 318 279 273 253 202 186 190 191 194 198 187 187 187 189 180 185 201 196 200 198 204 200 199
88 335 327 42 16 8 313 245 316 318 329 308 330 311 296 342 355 348 329 321 332 323 296 279 258 208 193 193 186 195 195 191 192 191 175 123 116 86 166 206 206 204 204 202
62 321 5 1 52 58 318 204 6 328 355 328 42 310 314 339 345 350 342 342 334 336 332 333 301 242 199 204 198 193 187 187 194 186 184 197 197 196 204 198 193 193 200 205
259 6 0 344 335 49 241 346 303 303 314 16 343 305 277 346 350 346 336 336 343 335 337 356 349 291 219 222 200 184 159 183 202 194 199 200 208 222 120 106 177 211 187 206
243 255 169 251 299 227 290 321 47 47 266 11 302 51 299 351 339 338 331 337 342 342 354 355 4 6 20 70 119 187 163 171 166 172 239 186 163 102 79 72 85 77 71 26
336 343 309 200 329 6 346 15 5 359 5 238 329 60 245 331 340 332 336 340 337 335 355 356 8 1 3 13 10 139 161 148 143 128 109 98 86 81 74 62 73 62 68 56
54 330 5 0 81 324 331 30 106 244 308 296 323 330 293 346 339 342 343 349 344 359 1 0 4 353 353 8 7 44 120 113 98 96 95 102 94 85 71 60 68 78 68 42
55 293 319 208 1 57 326 59 95 264 8 310 288 328 328 341 353 357 357 357 352 358 360 346 3 355 352 12 20 57 111 96 91 95 89 72 63 71 71 77 61 86 99 50
120 333 287 298 4 1 23 301 47 7 12 313 316 48 337 345 342 344 354 357 353 353 355 347 18 354 347 27 50 49 70 87 79 84 77 73 64 39 41 57 56 56 63 66
113 115 294 37 19 23 0 30 18 285 252 310 321 329 353 336 341 335 339 351 353 348 3 1 354 358 16 32 45 53 57 68 70 55 50 65 38 39 31 42 40 35 55 58
136 140 255 224 267 269 195 126 31 81 316 226 277 270 63 3 347 349 338 341 357 355 7 5 7 21 31 38 44 45 55 57 58 67 58 48 64 39 46 52 52 36 48 53
176 314 16 357 2 17 68 13 72 246 217 276 289 274 358 1 352 351 345 345 353 9 19 17 20 23 29 33 37 39 41 47 61 75 74 67 50 54 48 52 56 59 56 57
102 89 181 182 185 155 286 308 324 168 233 258 226 303 341 346 349 342 340 340 345 14 18 14 24 26 27 24 31 42 45 47 47 67 71 68 62 60 47 48 49 50 52 57
105 146 279 266 268 206 238 256 287 198 204 200 296 317 358 336 332 328 318 348 5 19 25 20 17 26 28 28 25 38 44 44 46 59 56 53 49 52 59 53 49 51 52 48
63 174 69 317 286 349 266 244 234 220 253 277 319 303 29 337 328 3 2 1 13 12 13 24 29 27 28 29 36 46 44 43 49 56 55 49 52 52 48 52 49 48 54 47
97 117 73 268 347 330 341 218 175 115 118 197 316 299 343 343 6 10 355 3 11 18 13 15 23 30 30 31 35 45 45 47 50 48 38 39 38 44 39 45 55 47 48 46
125 89 95 228 16 11 240 335 142 208 202 209 274 283 285 264 184 33 10 11 11 16 20 14 13 18 19 26 37 43 38 42 47 47 43 36 41 52 45 46 43 39 36 40
120 106 69 110 182 286 318 185 165 171 274 192 247 300 295 280 171 34 12 21 22 23 29 27 22 24 32 27 25 43 40 37 37 27 24 18 19 34 35 34 22 25 29 36
85 89 112 75 129 204 231 170 134 113 313 192 217 282 316 337 166 272 353 4 27 32 37 32 27 34 33 11 22 47 39 32 26 10 7 10 16 29 28 16 16 12 28 35
123 132 165 173 248 282 245 175 149 82 231 170 179 144 334 116 311 149 191 33 58 59 42 34 46 50 27 2 17 44 31 29 359 357 7 11 13 15 14 5 14 4 20 48
159 151 189 94 90 280 184 88 167 198 118 161 157 153 117 126 152 183 186 204 9 37 32 35 51 41 31 24 18 42 35 356 355 353 9 10 2 3 0 4 359 1 23 58
211 181 176 181 210 245 205 189 188 165 153 195 177 167 170 171 194 203 229 223 76 43 42 29 52 69 37 28 24 34 5 355 350 354 12 12 358 359 355 0 3 6 14 32
243 183 162 112 226 224 210 214 204 176 189 180 183 169 181 196 209 217 229 194 181 163 108 43 56 58 51 27 39 30 359 350 344 9 4 4 7 351 356 353 4 21 13 23
196 143 170 264 271 293 245 217 211 196 195 183 182 180 194 194 217 209 220 235 214 171 138 91 69 70 46 18 40 13 2 349 353 8 4 4 345 333 332 333 298 351 284 190
192 174 172 208 205 171 207 198 180 175 201 207 185 198 209 195 219 204 231 220 178 160 145 129 91 92 26 27 28 2 356 355 2 3 354 351 346 350 7 9 339 332 2 10